Wind_Speed
27 32 34 23 23 20 27 37 45 52 54 69 76 77 66 68 69 67 67 65 61 53 48 42 47 48 44 43 39 40 36 38 37 35 33 32 33 33 35 36 37 36 35 34
29 32 23 23 29 24 24 30 39 40 46 64 71 75 71 70 70 69 69 65 60 53 53 53 56 48 49 36 40 37 35 36 37 35 33 34 35 32 36 38 37 37 37 36
34 25 21 30 28 33 29 28 30 36 39 53 64 74 76 73 68 72 72 69 62 54 52 53 46 40 40 40 32 34 36 36 37 39 38 35 35 37 38 37 35 36 36 36
30 17 16 8 16 25 31 29 26 34 39 35 56 67 69 69 71 73 73 69 69 60 55 58 42 44 36 31 32 40 40 39 40 39 41 36 35 37 35 34 37 37 37 35
21 18 15 4 7 5 9 18 28 31 33 24 45 63 74 69 73 72 71 69 72 63 52 55 66 45 37 44 50 44 35 56 49 45 42 42 44 43 42 39 36 34 37 38
16 13 8 9 3 7 9 12 30 38 37 26 42 67 63 70 68 72 72 68 64 60 53 58 52 53 54 45 41 44 41 41 50 48 53 38 45 39 42 40 36 33 34 35
10 4 10 8 9 15 12 16 24 30 31 28 46 44 63 69 65 72 73 73 74 56 51 51 57 59 57 49 44 48 33 43 53 41 36 37 39 42 41 35 40 37 37 33
4 5 3 3 13 14 16 26 14 13 33 30 47 50 32 66 64 61 57 61 59 57 58 53 50 49 48 47 41 44 43 41 44 35 42 47 50 34 32 29 32 27 39 34
2 8 7 12 8 5 9 12 8 13 26 25 58 49 27 41 61 62 60 53 60 64 70 44 51 47 53 48 34 51 31 33 37 35 44 40 42 36 35 35 37 40 41 44
9 8 8 5 7 9 6 4 5 23 30 24 44 54 35 39 44 35 63 61 58 59 60 47 47 49 56 45 50 46 40 30 26 33 38 28 29 34 41 40 35 38 40 34
7 8 5 12 10 8 6 5 7 21 31 31 41 45 45 36 38 43 49 60 63 63 48 47 46 47 49 51 40 46 47 50 36 27 26 25 28 33 36 38 37 39 42 49
2 2 7 14 10 8 11 19 14 13 13 24 30 37 31 33 35 42 43 49 61 62 47 48 40 46 44 46 46 50 41 36 46 32 28 24 24 25 30 37 40 42 38 33
5 6 5 14 11 13 14 16 17 18 16 18 29 41 45 43 32 33 41 41 52 61 53 40 37 37 35 33 37 41 42 33 37 37 27 27 27 33 27 40 41 40 40 43
12 8 7 7 11 9 7 11 12 16 16 20 27 30 32 42 34 34 34 38 49 52 64 39 35 38 39 34 34 33 35 40 39 42 45 33 38 32 25 37 43 37 34 33
12 12 11 9 10 11 6 7 11 11 10 11 11 19 25 37 31 26 27 37 38 40 42 41 41 40 38 44 40 35 34 37 36 38 43 49 41 41 37 43 49 47 33 36
14 9 9 6 7 10 10 10 9 13 11 8 11 9 12 18 26 27 23 24 28 33 32 35 38 36 41 42 43 44 34 32 35 34 34 43 45 40 40 43 42 42 41 38
15 12 10 7 9 8 10 12 11 9 11 11 11 14 12 15 16 17 15 16 19 24 27 32 34 32 32 33 33 33 31 30 33 31 33 36 37 40 40 42 39 35 35 35
12 14 13 6 6 5 8 9 7 9 7 8 11 12 15 16 18 17 17 15 15 16 19 23 25 28 30 31 35 36 35 32 31 30 30 28 33 37 36 34 34 33 31 32
10 12 11 7 6 6 8 9 8 6 5 5 6 9 10 13 16 18 20 21 21 20 22 24 24 26 26 28 30 31 31 31 31 31 31 29 31 34 34 35 36 39 39 42
9 10 10 8 6 7 8 10 9 9 7 5 7 8 8 9 11 12 14 17 20 22 22 23 25 26 26 28 30 29 30 33 34 37 38 37 38 39 41 42 41 41 42 42
13 10 12 10 7 9 9 9 9 9 8 7 6 7 7 7 9 11 12 12 15 17 18 20 22 23 25 26 28 27 26 28 30 32 35 35 35 36 37 38 39 39 39 39
11 9 10 9 8 8 7 5 4 5 8 7 6 7 8 9 8 9 11 12 14 15 17 18 19 21 23 25 26 26 26 28 29 29 30 31 32 34 35 35 36 37 38 38
7 6 6 5 6 3 2 4 4 4 6 3 3 5 7 11 12 12 15 16 16 17 18 19 20 22 23 23 25 26 26 27 28 29 30 31 32 34 35 36 37 38 39 41
13 12 12 11 10 9 10 9 8 11 13 13 13 12 13 13 13 13 14 17 18 21 22 24 26 27 27 27 28 29 29 31 32 33 34 35 36 37 38 39 40 42 44 45
16 18 18 17 16 17 17 17 18 19 19 19 19 21 22 22 23 26 24 25 26 25 26 28 30 32 33 34 35 36 36 37 38 38 39 40 42 43 43 45 46 47 48 49
13 14 15 14 16 17 19 20 22 24 25 26 27 29 29 31 31 31 32 34 36 38 39 39 38 38 39 39 38 39 40 41 42 43 44 45 47 48 49 50 51 52 53 54
Wind_Direction
294 294 302 298 278 273 268 246 231 230 218 223 216 215 209 210 210 211 214 215 217 214 215 213 224 223 219 226 206 213 216 222 224 227 231 233 232 231 233 236 239 242 246 250
302 308 299 279 267 247 252 245 228 218 210 220 214 210 200 206 210 209 211 213 212 215 216 215 229 221 220 229 223 220 219 222 225 227 229 226 227 228 232 233 236 240 244 246
302 316 265 260 272 245 251 240 228 214 210 217 211 208 202 206 203 205 208 208 208 207 208 207 213 217 223 227 214 221 225 227 229 227 227 225 226 228 232 235 238 241 244 247
307 292 285 308 273 248 250 245 227 202 206 203 209 203 197 200 204 204 206 207 206 207 211 217 210 221 225 234 214 223 211 223 231 228 228 229 231 228 234 235 236 238 243 247
318 284 272 240 334 1 121 197 192 193 188 172 206 195 194 195 200 201 204 206 208 212 212 206 218 224 233 233 240 228 237 230 226 219 226 226 227 241 237 231 244 245 247 243
313 315 299 239 271 123 118 155 166 165 172 210 185 198 203 195 198 201 202 204 203 206 209 218 230 229 229 241 232 237 240 215 221 222 232 223 230 235 228 229 234 240 245 244
339 43 31 61 93 162 134 147 182 187 202 182 179 187 206 200 201 200 202 202 207 215 221 223 226 228 231 232 233 239 245 222 217 232 225 231 247 237 236 226 232 237 239 235
315 27 65 92 127 158 164 165 152 202 187 172 195 203 203 201 202 202 203 210 213 211 221 221 228 223 225 227 228 239 253 202 216 221 230 232 229 242 233 226 228 233 233 240
323 71 103 132 170 208 158 181 171 192 206 196 194 201 205 196 206 212 203 205 210 211 217 229 221 222 226 222 228 229 255 222 221 205 221 231 233 238 235 238 241 239 245 253
152 52 116 115 152 166 203 164 276 169 188 184 181 197 213 193 189 198 209 206 205 215 207 223 221 234 229 232 233 244 229 244 240 234 205 222 241 244 244 246 258 254 245 233
197 99 92 159 152 182 202 254 160 165 176 181 181 188 194 190 196 194 194 211 213 207 219 221 212 217 227 231 231 235 243 256 248 226 231 242 261 258 253 250 259 252 246 249
171 197 85 103 129 126 98 90 143 126 158 170 187 179 195 196 197 204 206 207 219 217 217 226 223 220 222 224 232 243 241 240 236 252 240 247 242 248 258 253 257 255 243 249
125 87 77 69 79 69 61 55 88 138 143 158 171 181 199 198 199 202 206 212 215 219 219 221 232 228 216 226 238 243 245 235 242 246 248 241 245 257 258 236 248 230 248 247
142 123 127 74 86 75 60 82 61 89 107 135 139 161 175 191 200 211 217 212 215 220 225 237 238 243 239 231 236 231 236 244 242 243 256 255 247 254 248 233 238 242 246 247
116 143 128 100 92 92 106 99 111 97 94 116 155 130 137 172 169 172 200 217 218 223 231 233 237 241 245 244 243 243 237 237 242 240 245 254 256 250 243 240 250 242 250 246
119 121 120 124 127 114 98 108 107 143 133 132 147 165 165 144 168 179 177 180 202 220 229 226 231 235 244 249 253 252 259 265 265 257 247 245 249 252 250 255 253 252 243 254
127 116 113 120 122 137 120 92 85 111 141 155 152 152 162 170 171 169 179 196 201 198 200 206 215 223 229 233 241 241 247 249 237 239 250 246 242 248 248 248 251 254 255 260
130 129 117 133 133 137 121 118 106 98 113 137 163 168 172 181 185 196 201 213 217 220 224 226 218 220 223 225 226 229 230 235 244 248 253 251 252 254 253 253 262 272 284 286
134 134 133 134 127 130 127 142 155 143 134 146 161 173 184 188 196 203 208 210 221 230 233 238 237 237 235 235 234 232 238 243 246 252 254 260 268 265 271 273 274 280 282 285
119 128 130 143 138 141 147 148 147 150 166 193 189 196 195 207 205 205 208 219 224 227 230 239 243 245 247 246 246 245 244 244 248 251 254 257 259 259 260 261 263 264 264 263
109 113 110 124 132 145 153 155 147 150 164 179 186 193 202 207 223 235 235 232 230 231 234 236 241 246 249 251 254 256 257 256 256 258 260 262 263 264 265 265 265 265 266 267
134 126 115 118 123 121 124 125 143 177 173 188 196 210 220 226 227 236 246 247 247 246 247 247 248 248 249 251 253 254 255 257 259 259 258 259 262 263 264 265 267 268 269 271
203 196 196 190 187 205 200 182 157 176 181 175 217 208 229 240 242 241 247 250 255 257 254 255 252 252 251 252 254 256 257 257 258 260 261 261 261 262 264 265 266 266 267 267
231 231 240 241 243 246 250 251 256 258 268 271 270 265 245 247 248 247 249 252 255 257 258 256 257 256 255 255 255 255 255 256 257 259 261 262 264 264 264 265 266 267 268 269
243 244 247 247 243 243 245 247 252 257 259 257 262 269 268 264 265 263 266 264 262 264 264 264 261 260 259 260 260 261 262 263 263 264 266 266 267 268 269 269 270 271 272 273
256 255 255 256 257 257 255 253 255 257 258 257 257 256 258 263 268 270 271 271 269 268 267 268 266 262 260 260 260 262 264 266 268 269 270 271 273 274 274 275 275 275 274 274
Height
5544 5539 5534 5531 5528 5525 5522 5521 5530 5545 5565 5565 5579 5599 5623 5640 5656 5670 5683 5692 5702 5710 5720 5724 5733 5740 5744 5749 5749 5757 5763 5769 5772 5778 5783 5788 5793 5797 5800 5802 5804 5807 5811 5813
5537 5531 5528 5523 5520 5518 5518 5518 5525 5537 5547 5550 5571 5590 5610 5623 5643 5660 5673 5684 5695 5703 5713 5723 5729 5733 5738 5742 5748 5752 5757 5761 5766 5772 5778 5781 5785 5790 5792 5794 5797 5801 5804 5806
5532 5528 5521 5518 5514 5513 5513 5516 5523 5531 5541 5546 5564 5578 5600 5617 5633 5646 5660 5673 5686 5696 5705 5714 5717 5727 5732 5738 5744 5740 5754 5757 5762 5767 5771 5775 5777 5780 5783 5789 5792 5794 5797 5800
5526 5522 5517 5513 5509 5508 5507 5514 5520 5529 5535 5544 5558 5574 5594 5610 5624 5639 5652 5667 5679 5687 5698 5707 5710 5720 5725 5730 5735 5740 5738 5749 5755 5760 5764 5769 5774 5776 5779 5782 5783 5786 5789 5793
5523 5518 5514 5513 5509 5508 5506 5509 5518 5529 5539 5552 5560 5574 5589 5603 5615 5631 5647 5660 5670 5682 5687 5696 5706 5712 5719 5725 5719 5732 5733 5735 5745 5750 5757 5761 5767 5769 5772 5775 5777 5780 5783 5785
5521 5516 5515 5514 5512 5513 5513 5519 5523 5533 5544 5546 5558 5571 5584 5598 5613 5627 5640 5653 5664 5675 5683 5691 5699 5705 5713 5719 5724 5729 5729 5727 5735 5745 5747 5751 5755 5761 5763 5768 5771 5774 5777 5778
5523 5520 5518 5516 5514 5517 5518 5527 5534 5539 5542 5549 5559 5574 5585 5595 5610 5624 5637 5649 5659 5668 5676 5686 5693 5699 5707 5713 5717 5720 5723 5724 5732 5736 5744 5744 5750 5756 5759 5762 5764 5766 5769 5771
5525 5525 5523 5523 5525 5525 5527 5531 5535 5541 5548 5553 5560 5568 5577 5595 5608 5620 5630 5640 5651 5663 5671 5680 5686 5692 5701 5708 5715 5716 5720 5720 5728 5733 5738 5741 5747 5750 5753 5755 5758 5757 5760 5762
5527 5528 5528 5530 5529 5529 5532 5534 5539 5544 5551 5555 5561 5570 5581 5593 5604 5615 5627 5636 5646 5657 5668 5675 5682 5685 5694 5699 5706 5709 5712 5717 5720 5724 5732 5736 5740 5744 5743 5747 5751 5751 5752 5755
5531 5531 5531 5531 5533 5535 5537 5539 5542 5544 5549 5552 5559 5570 5579 5590 5602 5613 5625 5632 5641 5651 5662 5668 5675 5679 5686 5693 5700 5702 5709 5712 5716 5718 5724 5725 5726 5734 5735 5739 5741 5744 5747 5746
5534 5535 5535 5537 5538 5538 5540 5540 5540 5544 5548 5553 5561 5572 5579 5590 5600 5612 5620 5630 5636 5646 5657 5663 5666 5673 5680 5687 5692 5697 5702 5706 5714 5715 5719 5722 5723 5726 5728 5730 5732 5734 5738 5741
5537 5539 5539 5539 5540 5541 5541 5540 5542 5547 5550 5555 5564 5571 5580 5589 5600 5610 5617 5625 5632 5643 5651 5657 5662 5668 5675 5681 5686 5690 5695 5699 5704 5708 5711 5714 5717 5720 5720 5721 5724 5728 5730 5732
5540 5542 5543 5543 5546 5545 5545 5546 5547 5551 5555 5559 5566 5574 5581 5590 5600 5608 5615 5622 5629 5638 5645 5649 5653 5658 5666 5673 5679 5684 5687 5691 5696 5701 5703 5706 5710 5712 5713 5715 5718 5720 5721 5722
5544 5546 5547 5549 5550 5550 5551 5553 5555 5557 5560 5564 5569 5576 5582 5591 5600 5607 5612 5619 5627 5632 5638 5644 5649 5654 5660 5667 5672 5677 5681 5684 5688 5691 5694 5697 5701 5705 5706 5709 5712 5711 5712 5712
5548 5549 5552 5552 5554 5555 5557 5558 5561 5564 5567 5570 5574 5579 5585 5594 5601 5606 5610 5616 5622 5627 5634 5639 5644 5649 5654 5660 5665 5669 5673 5678 5681 5682 5685 5690 5693 5697 5698 5701 5702 5703 5703 5704
5551 5552 5554 5557 5559 5560 5561 5562 5566 5569 5573 5576 5580 5584 5589 5595 5599 5605 5611 5617 5620 5625 5630 5636 5640 5645 5648 5653 5659 5662 5665 5669 5672 5674 5677 5680 5684 5687 5688 5690 5691 5692 5693 5694
5555 5557 5558 5561 5563 5565 5567 5568 5570 5573 5576 5580 5584 5588 5591 5597 5602 5608 5612 5616 5620 5624 5628 5633 5636 5640 5644 5648 5652 5656 5659 5662 5665 5666 5669 5672 5673 5676 5677 5679 5681 5681 5682 5683
5558 5560 5562 5564 5565 5568 5570 5572 5574 5576 5579 5583 5586 5590 5594 5598 5603 5607 5611 5615 5618 5621 5625 5628 5630 5633 5637 5641 5645 5648 5651 5653 5656 5658 5661 5662 5664 5667 5668 5669 5671 5673 5674 5675
5561 5563 5564 5567 5568 5571 5574 5576 5578 5579 5583 5586 5590 5593 5596 5599 5602 5605 5609 5612 5616 5618 5621 5624 5626 5629 5630 5634 5637 5639 5642 5644 5647 5650 5653 5654 5656 5658 5659 5660 5662 5663 5663 5665
5565 5565 5568 5570 5572 5574 5576 5578 5580 5582 5585 5588 5591 5594 5597 5599 5602 5605 5607 5609 5612 5615 5617 5619 5622 5624 5626 5628 5630 5632 5634 5637 5640 5643 5645 5646 5648 5649 5649 5650 5650 5651 5652 5652
5567 5569 5570 5571 5574 5575 5577 5578 5580 5584 5589 5588 5590 5593 5596 5598 5600 5602 5604 5607 5609 5611 5612 5614 5617 5619 5621 5623 5625 5626 5627 5629 5633 5635 5637 5637 5638 5640 5641 5641 5642 5642 5642 5643
5571 5573 5573 5574 5576 5578 5578 5579 5582 5585 5586 5587 5589 5592 5595 5597 5599 5600 5602 5603 5605 5607 5609 5610 5612 5613 5615 5617 5619 5621 5622 5623 5624 5626 5627 5628 5630 5631 5632 5633 5633 5633 5633 5632
5573 5574 5576 5578 5578 5578 5580 5582 5582 5585 5586 5586 5588 5590 5592 5594 5596 5598 5599 5601 5602 5603 5604 5605 5607 5608 5610 5611 5613 5614 5616 5617 5619 5620 5620 5620 5622 5622 5623 5623 5624 5624 5623 5623
5571 5573 5574 5577 5578 5578 5579 5580 5582 5584 5585 5586 5587 5588 5589 5591 5592 5594 5594 5596 5598 5599 5600 5601 5602 5603 5604 5605 5606 5607 5608 5609 5610 5611 5612 5612 5613 5613 5613 5613 5613 5613 5612 5611
5569 5569 5570 5572 5574 5575 5577 5578 5578 5579 5580 5581 5582 5584 5585 5586 5587 5588 5589 5590 5590 5591 5592 5593 5594 5595 5595 5596 5597 5598 5598 5599 5600 5600 5601 5602 5602 5601 5601 5601 5600 5600 5599 5597
5564 5566 5567 5568 5569 5570 5571 5571 5572 5573 5573 5574 5576 5577 5577 5578 5579 5580 5580 5581 5581 5582 5582 5582 5583 5584 5584 5585 5586 5587 5588 5588 5588 5588 5588 5588 5587 5587 5587 5587 5586 5585 5585 5583